Wind_Speed
12 12 10 10 9 9 10 10 11 12 12 13 14 15 15 15 15 15 15 15 16 15 14 14 14 15 14 14 15 14 14 14 15 15 15 15 15 15 14 14 14 14 15 16 17 18 18 19 19 20 21 23 24 24 24 24 24 25 26 26 26 26 26
12 11 10 10 10 11 11 12 13 13 13 14 14 15 15 15 14 14 15 16 16 16 15 15 15 15 14 14 14 14 14 14 15 15 16 16 17 17 17 17 17 17 16 16 17 17 18 20 20 20 21 22 23 24 26 27 26 27 27 28 28 28 28
12 11 10 11 11 12 13 13 14 14 14 14 15 15 15 15 14 14 15 15 15 15 15 15 14 14 14 13 13 14 14 15 15 16 16 17 17 18 19 19 20 20 19 18 18 18 18 20 21 21 21 22 23 24 26 28 28 29 28 29 30 29 29
11 11 11 12 12 13 14 14 14 14 14 15 15 15 15 15 14 14 15 15 15 14 14 14 14 13 13 13 13 14 14 15 15 16 17 18 18 19 19 20 21 22 22 21 20 19 19 20 21 22 22 22 23 24 25 27 30 30 29 30 31 30 29
11 11 12 13 13 13 14 14 14 14 14 15 15 15 15 14 14 14 15 15 15 14 14 14 14 14 14 14 14 15 15 16 16 16 17 18 19 20 20 21 22 23 23 24 23 22 21 21 22 24 22 22 24 24 23 25 28 30 29 27 28 29 28
12 13 13 13 13 14 14 14 14 14 15 15 15 15 15 15 15 15 15 15 15 15 15 15 14 15 15 15 16 16 17 18 18 18 18 19 20 21 21 22 23 24 24 25 26 24 23 23 23 24 22 23 25 24 23 24 25 28 28 25 24 27 29
13 13 13 13 13 14 13 13 13 14 15 15 15 15 15 15 15 15 15 16 16 17 17 17 16 16 17 17 18 19 19 20 20 20 20 20 21 22 22 23 23 24 25 26 26 26 26 25 24 23 23 24 25 24 24 24 24 26 26 24 23 25 27
13 13 14 14 14 13 13 13 13 14 15 15 15 15 15 15 15 15 16 16 17 18 18 18 18 19 19 20 21 21 22 22 22 22 22 22 22 23 23 24 24 24 25 26 26 26 26 26 24 22 23 24 24 24 24 24 23 24 24 23 22 23 23
14 14 14 14 13 13 13 13 13 14 15 15 15 15 15 15 15 16 16 17 18 18 19 19 20 20 21 22 23 23 23 23 23 24 24 24 24 24 24 24 25 24 25 26 27 26 26 26 25 23 23 24 25 24 24 24 22 22 23 24 23 22 22
15 15 14 14 13 13 13 13 14 15 15 14 14 15 15 15 16 16 16 17 18 18 19 20 21 21 22 23 23 24 24 25 25 25 25 25 25 25 25 25 25 25 25 27 27 26 26 26 26 24 22 23 24 24 24 25 23 21 23 24 24 23 22
16 15 15 14 13 13 13 14 15 14 14 14 14 15 15 15 16 16 16 17 18 18 19 20 21 22 22 23 24 25 26 26 26 26 27 27 26 26 26 25 26 26 26 27 27 27 27 27 25 23 22 22 23 25 25 27 26 22 22 24 23 24 25
16 15 15 15 14 14 14 15 14 14 14 14 14 15 15 15 15 16 16 17 18 19 20 20 21 22 23 25 25 26 27 28 28 27 27 28 27 27 26 26 26 26 26 27 27 27 27 26 24 23 24 24 25 26 24 26 29 25 22 24 24 25 26
18 17 16 15 15 15 15 15 14 14 14 14 14 14 15 15 16 16 17 18 18 19 20 21 23 24 25 26 27 28 28 28 29 28 28 27 27 27 26 25 26 26 27 26 26 27 26 25 24 23 23 25 26 26 24 26 29 28 24 25 26 26 26
19 18 17 17 16 16 16 15 15 14 14 15 15 15 15 15 16 17 17 18 19 20 21 23 24 25 26 27 28 29 29 29 29 28 28 27 27 27 26 25 26 26 28 27 26 26 26 25 24 22 22 24 26 27 26 26 28 30 27 26 27 27 27
20 19 19 18 17 17 17 16 15 15 15 15 15 15 15 15 16 17 18 19 20 21 23 24 26 27 28 29 30 30 30 30 29 29 29 28 28 28 27 26 26 27 27 28 26 26 26 25 24 23 22 23 24 26 28 27 28 30 29 27 28 28 28
21 20 20 19 18 17 17 16 15 15 15 15 15 15 15 16 16 17 19 20 21 23 24 26 28 29 30 31 32 32 32 31 31 30 29 29 29 29 28 28 28 27 27 27 26 26 25 24 23 24 24 24 23 25 28 29 29 29 29 29 30 29 30
21 21 20 19 18 18 18 17 16 16 16 15 15 15 16 17 18 19 20 21 23 25 26 28 30 31 33 33 34 34 33 32 32 31 31 30 30 30 30 29 29 28 27 27 26 26 25 23 22 23 25 24 23 25 27 29 29 29 30 31 31 30 30
22 21 20 19 18 18 18 18 17 17 16 16 16 17 18 19 20 21 22 24 25 27 29 31 33 34 35 35 35 35 34 33 33 32 32 31 31 30 30 29 28 28 27 27 26 25 25 24 23 23 24 24 24 25 26 26 27 29 31 32 31 29 29
22 21 20 19 18 19 19 18 17 17 17 17 18 19 20 21 22 24 25 27 29 30 32 34 35 36 36 36 36 35 35 34 33 32 32 31 31 30 29 28 28 27 27 26 25 24 24 24 24 24 24 24 25 27 26 25 27 30 30 30 28 28 29
22 20 19 18 18 19 19 18 18 18 18 19 19 21 22 23 25 27 28 30 31 33 35 36 36 36 36 35 35 34 34 34 33 32 31 31 29 28 28 27 27 26 26 25 24 23 23 23 23 24 24 24 26 27 26 26 28 29 29 29 28 30 30
20 19 18 18 18 19 19 18 18 19 19 20 21 22 24 25 27 29 30 32 34 35 36 36 36 35 35 34 33 33 32 32 32 31 31 30 29 27 26 26 25 25 24 23 23 23 23 23 23 23 23 24 25 25 25 26 27 28 29 29 30 31 31
19 18 17 18 18 18 18 18 19 19 20 21 22 24 25 27 28 30 32 34 35 36 36 36 35 34 33 33 32 32 31 31 31 30 30 30 29 28 26 24 23 22 22 22 22 22 22 22 23 22 22 22 23 24 24 25 26 27 28 30 30 30 30
18 17 17 17 18 18 18 18 19 19 20 22 23 25 27 28 30 31 33 35 36 36 35 35 34 34 33 33 32 32 32 32 31 30 29 29 29 28 27 24 22 20 20 21 21 20 20 22 23 23 22 22 23 23 23 24 25 26 27 28 29 29 29
17 16 16 16 16 17 17 18 19 20 21 23 25 26 28 29 30 32 34 34 35 34 34 34 33 33 32 32 32 32 32 32 31 30 30 29 28 27 26 24 21 19 19 20 20 20 20 21 22 23 23 23 23 24 24 24 25 26 28 29 29 29 30
15 14 14 15 15 16 17 18 19 21 23 25 26 27 28 30 31 32 33 33 33 33 32 32 32 31 31 30 30 30 30 30 30 29 29 29 28 27 26 24 22 21 21 21 21 21 22 22 24 25 25 25 26 26 26 27 27 28 29 31 32 31 30
13 13 13 14 15 16 17 19 20 22 23 25 26 27 29 30 30 31 31 31 30 30 29 29 28 28 28 28 28 28 27 28 28 28 28 28 28 28 26 25 23 23 22 22 22 23 23 24 25 26 26 27 27 27 28 29 29 30 30 32 33 32 30
11 11 12 13 14 16 17 19 20 22 23 24 26 27 28 28 28 28 28 27 26 25 24 24 24 24 24 24 24 25 25 25 26 26 26 26 26 27 26 25 24 24 23 23 23 24 24 24 24 26 26 27 27 27 27 28 29 30 31 31 32 31 28
10 10 11 12 14 15 17 18 20 21 22 23 24 25 25 25 24 23 22 21 20 19 19 20 20 20 21 22 22 23 23 24 24 25 25 25 25 25 25 25 24 24 25 25 24 24 23 23 23 24 25 24 24 25 26 27 28 29 28 27 27 27 26
9 10 11 12 14 15 17 18 19 20 21 21 21 21 20 19 18 17 16 15 15 16 17 17 18 19 20 21 22 22 22 23 23 24 24 24 24 24 25 25 25 24 23 22 23 22 21 21 21 22 22 22 22 23 24 26 27 26 24 22 22 22 23
8 9 11 12 14 15 17 18 18 18 18 17 17 16 14 12 12 12 12 13 14 14 16 17 18 19 19 20 21 21 21 21 22 22 23 23 23 24 24 24 24 22 21 21 21 21 20 20 20 20 20 20 21 22 23 24 25 23 22 21 20 20 20
8 10 11 13 14 15 15 15 15 15 14 12 11 10 9 8 9 10 11 12 13 15 16 17 17 18 19 20 20 21 21 21 22 22 23 23 23 23 22 22 22 22 22 22 21 20 20 19 19 19 19 20 20 21 21 21 22 21 20 20 20 21 21
9 11 12 12 12 12 12 11 11 9 8 7 6 6 7 8 9 10 11 13 14 15 15 16 16 17 18 19 20 20 21 21 21 21 22 22 23 23 22 21 21 21 21 22 22 21 20 20 19 18 17 16 17 19 19 19 19 19 18 18 17 18 20
10 11 10 10 9 8 7 6 5 4 4 4 5 7 8 9 10 11 12 13 13 13 14 15 17 18 19 20 20 21 21 22 22 23 23 23 23 23 22 21 20 19 19 20 21 20 19 18 17 16 13 12 13 15 15 15 15 14 14 14 14 14 15
8 7 7 6 5 4 3 2 3 4 5 6 7 8 9 10 11 12 12 13 14 15 16 18 19 20 21 22 22 23 23 23 24 24 23 22 22 21 21 21 21 20 19 19 18 17 16 16 15 14 13 12 12 13 13 11 10 10 10 11 10 10 11
4 3 2 1 1 2 3 5 6 6 7 9 10 11 11 12 12 13 14 15 17 18 20 21 22 22 23 23 23 23 24 24 23 22 21 21 21 22 22 23 23 23 22 21 19 18 16 15 14 13 14 14 14 14 14 12 10 9 10 10 10 10 11
1 1 2 3 4 6 7 8 8 9 10 11 12 12 12 13 14 15 16 17 19 20 21 22 23 23 24 24 24 24 25 25 24 23 22 22 24 25 27 28 28 28 27 26 24 22 20 18 15 13 13 13 13 14 14 13 12 11 10 10 10 10 10
4 5 6 7 8 9 9 10 11 11 12 12 12 12 13 14 15 16 17 18 19 20 21 22 23 23 24 25 25 26 26 26 26 25 26 27 28 29 30 30 30 30 29 28 27 25 22 21 19 17 16 15 14 14 14 14 14 13 12 11 10 9 9
Wind_Direction
217 219 227 239 248 258 270 278 282 288 294 300 304 306 305 304 302 301 303 307 310 312 315 318 319 318 319 319 319 320 320 321 322 323 324 324 324 323 319 317 314 308 306 305 302 299 299 299 298 298 298 296 294 293 290 287 284 282 280 278 275 271 267
218 223 232 243 254 262 272 280 283 286 290 293 297 298 298 296 293 294 299 303 307 309 313 316 318 317 317 318 318 319 319 319 321 321 324 328 328 328 326 322 319 314 308 304 302 302 302 298 295 294 293 292 293 293 290 287 284 281 279 277 275 272 268
220 229 239 250 262 270 276 282 283 283 284 287 292 294 293 291 289 290 293 298 302 305 310 312 313 312 311 314 315 317 317 318 320 320 323 326 327 329 329 327 325 319 312 305 302 300 296 293 293 293 293 292 291 291 290 290 287 282 278 276 274 273 271
227 237 248 258 266 274 279 281 279 279 282 288 294 295 292 290 290 290 291 295 298 301 306 307 307 308 309 312 312 314 314 315 317 319 322 324 325 326 326 327 325 322 318 312 306 302 296 294 295 294 295 295 292 290 291 292 291 288 284 277 273 271 270
233 242 251 260 268 273 275 275 274 279 286 294 296 294 292 289 288 289 290 293 297 300 303 303 304 306 307 310 311 312 312 312 314 315 317 320 321 322 322 323 323 321 320 317 313 309 301 297 296 295 296 295 293 293 293 292 293 292 290 285 275 268 266
235 244 252 259 265 267 267 269 276 285 292 295 295 292 289 288 287 288 290 294 296 297 298 297 299 301 303 306 307 309 310 310 312 313 315 316 318 319 318 319 320 318 319 317 315 312 305 299 295 294 295 294 293 296 294 293 294 292 292 292 282 268 262
239 247 254 257 259 260 264 272 281 289 292 292 290 288 287 286 287 289 291 293 293 293 293 292 294 295 299 302 304 306 307 308 310 311 313 314 315 316 315 315 316 316 317 316 313 312 308 302 297 293 293 292 293 296 295 294 293 290 292 295 289 277 267
245 250 254 255 256 259 266 276 285 290 291 290 287 285 284 284 286 288 289 290 291 291 290 290 291 293 296 299 301 304 305 306 308 310 312 312 312 313 312 312 313 313 314 313 311 311 309 303 298 294 293 293 294 295 294 293 291 291 292 291 288 283 276
249 252 253 254 255 261 272 282 288 290 289 288 285 282 281 281 284 286 288 290 291 291 291 290 290 291 294 296 298 300 302 304 307 309 310 310 310 310 310 310 310 310 312 311 310 311 308 303 299 295 293 293 294 294 293 293 292 291 291 289 287 285 279
250 252 252 252 256 265 276 283 287 288 287 285 282 280 279 280 282 285 289 292 293 293 292 292 292 292 294 295 296 298 301 303 306 307 307 308 308 308 308 309 309 309 311 310 309 309 307 304 301 298 293 290 291 291 291 293 294 290 288 288 289 287 281
252 253 251 252 258 267 276 282 286 288 286 282 279 278 279 281 284 287 290 294 295 296 296 295 295 295 295 296 297 299 301 303 304 305 305 305 306 306 307 308 308 309 310 308 309 309 306 303 301 296 292 289 288 288 291 294 296 294 289 288 287 283 281
256 255 251 252 259 267 276 283 286 285 281 279 279 279 281 283 286 289 293 296 298 298 298 298 297 297 297 298 300 301 302 303 303 304 304 304 304 304 305 307 308 308 307 307 307 306 303 301 298 295 294 291 288 289 292 292 293 294 291 289 286 282 280
257 256 250 251 258 267 275 280 280 279 279 279 280 281 283 286 289 294 296 298 300 299 299 299 299 299 300 302 303 303 304 304 304 305 304 304 303 304 305 306 307 306 304 304 303 301 300 297 294 294 294 291 288 288 288 284 286 291 292 289 288 285 283
254 253 248 250 257 265 272 274 274 276 278 279 281 283 286 289 293 296 297 298 299 299 300 301 302 304 305 306 307 307 307 307 306 306 305 305 304 304 305 305 305 304 302 302 301 299 297 294 291 291 290 291 290 288 288 286 287 291 292 289 288 287 286
251 250 247 249 255 263 269 269 270 274 276 279 282 285 288 291 293 295 297 299 300 302 303 305 306 307 308 309 309 309 309 308 307 307 306 305 304 304 305 304 303 302 300 300 299 297 294 292 290 287 285 286 288 288 288 287 286 288 291 290 288 287 287
248 247 245 247 254 262 265 266 268 271 275 278 281 285 287 289 292 294 296 299 302 304 306 307 308 308 308 308 308 308 308 307 306 305 304 303 303 303 303 303 302 301 299 298 297 295 293 291 288 286 284 281 281 285 285 283 282 285 289 289 287 286 287
245 244 243 247 254 260 262 263 267 270 274 278 280 283 285 287 290 293 295 299 301 304 305 306 306 307 307 307 307 306 306 305 304 304 303 302 302 302 302 302 301 299 298 296 294 292 290 287 284 285 284 281 278 280 283 284 284 284 284 285 287 287 286
242 240 241 247 253 258 260 262 266 270 274 277 279 282 285 288 291 293 295 298 300 302 304 305 305 306 306 305 305 304 303 303 302 302 302 301 301 301 301 300 299 298 296 295 292 290 288 286 284 282 282 283 281 278 280 284 287 285 283 285 288 288 287
239 238 241 247 254 258 260 262 267 271 274 277 279 283 286 289 291 294 296 298 300 302 303 305 305 305 305 304 304 303 302 302 301 301 300 300 300 300 300 299 298 297 295 293 290 288 286 284 282 280 280 281 280 278 277 278 281 284 284 286 289 289 288
238 239 243 249 255 258 260 264 269 272 275 278 281 285 288 291 293 295 297 299 300 302 303 305 306 305 304 304 303 303 302 302 301 301 300 300 300 301 301 299 298 297 295 293 290 286 283 281 280 279 278 277 277 278 278 277 279 283 286 286 287 287 288
237 240 246 251 255 258 261 266 271 274 278 281 285 289 292 294 295 297 298 299 301 303 305 306 305 304 303 303 303 302 302 302 302 302 302 301 301 301 301 301 300 298 296 293 291 288 286 284 280 278 278 277 278 280 281 281 282 284 285 284 285 286 287
238 243 248 252 255 259 263 270 274 277 281 285 289 293 295 297 298 298 299 301 303 305 305 305 304 303 302 302 303 303 303 303 304 304 304 303 303 303 303 302 301 300 299 296 293 292 292 291 287 284 282 281 282 282 282 283 283 283 284 284 286 288 287
239 243 248 251 256 261 267 272 276 281 285 290 293 295 297 299 299 300 302 304 305 305 305 304 304 304 304 305 305 305 305 305 306 306 306 305 305 305 305 304 303 304 306 305 301 297 295 295 294 292 289 287 286 285 285 286 287 287 286 287 287 288 288
240 243 248 253 259 265 271 276 281 286 290 293 296 297 299 300 301 303 304 305 305 304 304 305 306 306 308 308 309 308 308 308 308 307 307 306 306 304 303 304 304 305 304 302 300 297 294 294 296 295 292 290 289 288 288 289 290 290 289 288 288 287 286
242 246 252 259 265 271 277 282 287 291 293 295 298 299 301 303 304 305 305 305 305 305 306 308 309 310 312 312 313 313 312 312 311 311 310 309 308 306 303 302 302 302 299 295 294 295 294 294 296 296 293 290 290 289 290 291 291 291 289 288 288 288 285
246 252 259 266 273 278 283 287 290 293 295 297 299 302 304 305 306 306 306 306 308 309 311 313 314 316 317 318 318 318 318 318 317 316 316 316 315 313 310 307 305 304 303 300 298 298 298 296 294 293 291 288 287 286 287 291 293 294 293 290 288 288 285
253 260 267 274 279 284 287 290 292 294 297 300 303 306 307 307 307 308 309 311 313 315 319 322 325 328 329 330 330 329 328 327 325 324 324 322 322 320 318 315 311 309 308 307 304 301 299 296 291 290 290 290 289 289 289 292 296 297 297 294 291 290 288
260 268 275 280 284 287 290 293 296 299 303 306 307 308 309 310 312 314 317 321 325 331 336 340 342 344 343 343 342 340 338 336 333 332 329 327 326 325 323 320 316 314 310 307 306 305 303 300 296 294 295 294 293 294 294 295 297 297 298 297 294 292 291
268 275 280 284 287 291 295 298 302 305 307 309 310 311 314 318 321 326 333 341 348 354 356 355 355 355 352 351 349 346 343 340 337 335 332 328 326 325 323 319 315 314 313 311 313 314 311 308 304 301 298 296 296 297 297 296 297 297 299 300 299 297 293
273 279 285 290 293 297 300 303 306 308 310 313 316 320 325 332 340 350 358 3 5 6 5 2 1 0 357 356 354 351 348 344 341 338 335 331 327 325 324 320 316 315 317 318 319 318 313 310 307 304 304 304 304 302 299 296 295 297 300 302 304 303 299
280 288 293 297 299 302 305 307 311 313 317 322 328 334 345 358 7 10 11 10 9 8 6 3 2 1 0 360 359 357 355 352 348 344 340 335 331 329 328 325 322 321 320 319 319 316 311 305 302 304 306 308 309 306 301 295 292 294 298 301 303 305 304
292 294 296 298 301 306 311 315 319 324 331 342 353 7 17 22 21 18 15 12 9 5 2 1 1 3 3 2 2 1 1 359 356 353 350 347 344 342 338 333 328 325 320 317 314 312 307 299 294 295 299 305 311 309 302 294 289 289 294 297 301 305 305
290 291 294 300 306 313 321 327 337 353 14 30 38 40 37 31 27 23 19 16 12 9 8 9 11 10 8 6 6 5 5 4 3 1 1 359 357 353 349 344 338 333 328 322 315 310 304 295 289 290 294 302 310 308 301 294 290 291 295 300 302 305 305
284 289 297 307 316 329 348 23 54 65 70 68 62 55 48 43 39 35 32 30 28 28 28 27 24 21 17 14 13 11 10 9 7 5 4 3 1 360 359 357 353 349 344 337 328 319 310 301 297 298 303 305 305 306 305 303 303 309 313 315 316 317 318
282 292 307 328 32 83 92 96 95 92 87 80 72 66 61 57 53 49 46 43 41 38 36 34 31 28 24 22 20 18 17 16 14 11 9 8 9 11 12 11 9 6 2 357 351 344 335 326 317 309 307 307 307 308 311 314 322 329 328 327 332 335 334
223 131 125 124 119 115 113 110 106 101 93 86 79 74 70 64 59 54 49 46 43 41 39 36 34 31 28 27 26 24 23 23 21 19 19 19 20 20 19 18 16 13 11 9 6 2 357 352 346 339 332 328 325 321 321 324 327 330 330 330 334 337 333
137 134 133 129 125 123 122 117 110 102 95 89 83 77 70 64 58 53 48 45 42 40 39 37 35 33 31 30 29 28 28 27 25 25 25 25 25 23 21 19 17 15 15 13 12 11 10 7 7 7 4 360 354 348 342 337 333 331 331 330 331 333 332
Height
3168 3168 3169 3170 3170 3170 3170 3170 3170 3170 3170 3169 3169 3168 3167 3166 3166 3165 3164 3164 3163 3163 3162 3161 3161 3159 3158 3157 3156 3155 3154 3154 3152 3151 3150 3149 3147 3146 3145 3144 3143 3142 3141 3140 3140 3139 3137 3136 3136 3135 3134 3132 3131 3131 3130 3130 3129 3127 3127 3126 3126 3126 3127
3167 3168 3168 3169 3169 3169 3169 3169 3169 3169 3169 3168 3168 3167 3166 3165 3165 3164 3163 3162 3162 3161 3160 3160 3159 3158 3157 3156 3155 3154 3153 3153 3151 3150 3149 3147 3146 3144 3143 3142 3141 3140 3139 3138 3137 3136 3135 3134 3133 3133 3132 3130 3129 3128 3127 3126 3125 3124 3123 3123 3122 3122 3123
3166 3167 3167 3168 3168 3168 3168 3168 3168 3167 3167 3167 3166 3165 3165 3164 3163 3163 3162 3161 3160 3160 3159 3158 3157 3157 3156 3155 3154 3153 3152 3151 3150 3149 3147 3146 3144 3143 3141 3140 3139 3138 3136 3136 3134 3133 3133 3132 3130 3130 3130 3128 3127 3125 3124 3122 3121 3120 3119 3119 3118 3119 3119
3165 3166 3166 3166 3166 3166 3166 3166 3166 3165 3165 3165 3164 3164 3163 3162 3162 3161 3160 3160 3159 3158 3158 3157 3156 3155 3154 3153 3152 3151 3150 3149 3148 3147 3145 3144 3142 3141 3139 3138 3137 3135 3134 3133 3132 3131 3130 3129 3127 3126 3126 3125 3124 3123 3122 3119 3117 3116 3115 3115 3114 3114 3115
3164 3164 3164 3164 3165 3165 3165 3164 3164 3164 3163 3163 3162 3162 3161 3160 3160 3159 3159 3158 3157 3157 3156 3155 3154 3153 3153 3152 3150 3149 3149 3147 3146 3145 3144 3142 3140 3139 3137 3136 3134 3133 3132 3130 3129 3128 3127 3125 3124 3123 3122 3122 3120 3119 3119 3117 3114 3112 3111 3111 3110 3110 3110
3162 3163 3163 3163 3163 3163 3163 3162 3162 3162 3162 3161 3160 3160 3159 3159 3158 3157 3157 3156 3155 3155 3154 3154 3153 3152 3151 3150 3149 3148 3147 3145 3144 3143 3141 3140 3138 3137 3135 3134 3132 3131 3129 3128 3126 3125 3124 3123 3121 3120 3119 3118 3116 3116 3115 3114 3112 3110 3108 3108 3107 3106 3107
3160 3161 3161 3161 3161 3161 3161 3161 3161 3160 3160 3159 3159 3158 3158 3157 3156 3156 3155 3154 3154 3153 3153 3152 3151 3150 3149 3148 3147 3146 3145 3143 3142 3140 3139 3137 3136 3134 3133 3131 3130 3128 3127 3125 3124 3123 3121 3120 3118 3117 3115 3114 3113 3112 3111 3110 3110 3108 3106 3105 3104 3103 3103
3159 3159 3159 3159 3159 3159 3159 3159 3159 3159 3158 3158 3157 3157 3156 3155 3155 3154 3153 3153 3152 3152 3151 3150 3149 3148 3147 3146 3145 3144 3143 3141 3140 3138 3136 3135 3133 3132 3130 3129 3127 3126 3124 3123 3121 3120 3118 3116 3115 3114 3112 3111 3110 3109 3108 3107 3107 3105 3104 3103 3102 3101 3100
3157 3157 3158 3158 3158 3158 3158 3158 3157 3157 3156 3156 3155 3155 3154 3154 3153 3153 3152 3151 3150 3150 3149 3148 3147 3146 3145 3144 3143 3142 3140 3139 3137 3136 3134 3132 3131 3129 3128 3126 3124 3123 3122 3120 3118 3117 3115 3113 3112 3111 3109 3108 3106 3105 3105 3104 3103 3103 3101 3099 3099 3098 3098
3156 3156 3156 3156 3156 3156 3156 3156 3156 3155 3155 3154 3154 3153 3153 3152 3152 3151 3150 3149 3149 3148 3147 3146 3145 3144 3143 3142 3141 3139 3138 3136 3134 3133 3131 3129 3128 3126 3125 3123 3121 3120 3119 3117 3115 3114 3112 3110 3109 3107 3107 3105 3103 3102 3101 3100 3100 3100 3098 3097 3096 3095 3095
3154 3154 3154 3154 3155 3154 3154 3154 3154 3153 3153 3152 3152 3151 3151 3150 3150 3149 3148 3147 3147 3146 3145 3144 3143 3142 3140 3139 3138 3136 3134 3133 3131 3129 3127 3126 3124 3123 3121 3120 3118 3117 3115 3113 3111 3110 3108 3107 3105 3104 3103 3102 3100 3099 3098 3096 3096 3097 3096 3094 3094 3093 3091
3152 3152 3153 3153 3153 3153 3153 3152 3152 3151 3151 3151 3150 3150 3149 3148 3148 3147 3146 3145 3145 3143 3142 3141 3140 3139 3138 3136 3135 3133 3131 3129 3128 3126 3124 3122 3120 3119 3118 3116 3115 3113 3112 3110 3108 3107 3105 3103 3102 3101 3100 3099 3097 3096 3095 3093 3092 3093 3093 3091 3091 3090 3088
3151 3151 3151 3151 3151 3151 3151 3151 3150 3150 3150 3149 3148 3148 3147 3146 3146 3145 3144 3143 3142 3141 3140 3139 3137 3136 3134 3133 3131 3129 3128 3126 3124 3122 3121 3119 3117 3115 3114 3113 3111 3110 3108 3107 3105 3103 3102 3100 3099 3098 3097 3096 3095 3093 3092 3091 3089 3090 3090 3088 3087 3087 3085
3149 3149 3149 3149 3149 3149 3149 3149 3149 3148 3148 3147 3146 3146 3145 3144 3144 3143 3142 3141 3140 3139 3137 3136 3134 3133 3131 3129 3128 3126 3124 3122 3120 3119 3117 3115 3113 3112 3111 3110 3108 3106 3104 3103 3102 3100 3099 3097 3096 3095 3094 3093 3092 3090 3089 3088 3086 3086 3087 3086 3084 3083 3082
3146 3147 3147 3147 3147 3147 3147 3147 3147 3146 3146 3145 3144 3144 3143 3142 3142 3141 3140 3138 3137 3136 3134 3133 3132 3130 3128 3126 3124 3122 3120 3118 3117 3115 3113 3112 3110 3108 3107 3106 3104 3103 3101 3099 3098 3097 3095 3094 3093 3092 3091 3090 3089 3087 3086 3085 3084 3082 3082 3083 3081 3079 3078
3144 3144 3144 3145 3145 3145 3145 3145 3144 3144 3144 3143 3142 3142 3141 3140 3139 3138 3137 3136 3135 3133 3132 3130 3128 3127 3125 3123 3121 3119 3117 3115 3113 3111 3110 3108 3106 3105 3103 3102 3101 3099 3097 3096 3094 3093 3091 3091 3090 3088 3087 3086 3085 3084 3083 3082 3081 3079 3078 3078 3078 3076 3074
3142 3142 3142 3142 3142 3143 3143 3142 3142 3142 3141 3141 3140 3139 3139 3138 3137 3136 3135 3133 3132 3130 3129 3127 3125 3123 3121 3119 3118 3115 3113 3111 3109 3108 3106 3104 3103 3101 3099 3098 3097 3095 3093 3092 3090 3089 3088 3087 3086 3085 3084 3083 3082 3081 3080 3079 3077 3075 3074 3074 3074 3072 3071
3139 3139 3140 3140 3140 3140 3140 3140 3140 3139 3139 3139 3138 3137 3136 3136 3134 3133 3132 3130 3129 3127 3125 3124 3122 3120 3118 3116 3114 3112 3110 3108 3106 3104 3102 3100 3099 3097 3095 3094 3092 3091 3089 3088 3087 3085 3084 3083 3082 3081 3080 3079 3079 3078 3076 3075 3074 3073 3071 3069 3069 3068 3067
3137 3137 3137 3138 3138 3138 3138 3138 3137 3137 3137 3136 3135 3135 3134 3133 3132 3130 3129 3127 3126 3124 3122 3120 3118 3116 3114 3112 3110 3108 3106 3104 3102 3100 3098 3096 3094 3093 3091 3090 3088 3087 3085 3084 3082 3081 3080 3079 3078 3077 3076 3076 3075 3073 3072 3071 3070 3069 3067 3065 3064 3063 3063
3134 3135 3135 3135 3135 3135 3136 3135 3135 3135 3134 3134 3133 3132 3131 3130 3129 3128 3126 3124 3123 3121 3119 3117 3115 3113 3110 3108 3106 3104 3102 3100 3098 3096 3094 3092 3091 3089 3087 3086 3084 3083 3081 3080 3078 3077 3076 3075 3074 3073 3072 3072 3070 3069 3068 3067 3066 3064 3063 3061 3060 3059 3059
3132 3132 3133 3133 3133 3133 3133 3133 3133 3132 3132 3131 3130 3129 3128 3127 3126 3124 3123 3121 3119 3117 3115 3113 3111 3109 3106 3104 3102 3100 3098 3096 3094 3092 3090 3088 3087 3085 3084 3082 3080 3079 3077 3076 3074 3073 3072 3071 3070 3070 3069 3067 3066 3065 3064 3063 3062 3061 3059 3058 3057 3056 3055
3130 3130 3130 3130 3131 3131 3131 3130 3130 3130 3129 3128 3128 3127 3126 3124 3123 3121 3119 3117 3115 3113 3111 3109 3107 3105 3103 3100 3098 3096 3094 3092 3091 3089 3087 3085 3083 3082 3080 3079 3077 3075 3074 3073 3071 3070 3069 3067 3066 3065 3065 3064 3063 3062 3060 3059 3058 3057 3055 3054 3053 3052 3051
3127 3128 3128 3128 3128 3128 3128 3128 3128 3127 3126 3126 3125 3124 3123 3121 3119 3118 3116 3114 3112 3109 3107 3105 3103 3100 3098 3096 3094 3092 3090 3089 3087 3085 3083 3082 3080 3078 3077 3075 3074 3072 3071 3070 3069 3067 3066 3065 3063 3061 3061 3060 3059 3058 3056 3055 3054 3052 3051 3050 3049 3048 3047
3125 3125 3125 3125 3126 3126 3126 3125 3125 3125 3124 3123 3122 3121 3119 3118 3116 3114 3112 3110 3108 3105 3103 3101 3099 3097 3094 3092 3091 3089 3087 3085 3083 3081 3080 3078 3077 3075 3073 3072 3070 3069 3068 3067 3066 3065 3063 3062 3060 3058 3057 3056 3055 3053 3052 3051 3050 3048 3047 3045 3045 3044 3043
3123 3123 3123 3123 3123 3123 3123 3123 3123 3122 3121 3120 3119 3117 3116 3114 3113 3111 3109 3107 3104 3102 3100 3098 3095 3093 3091 3089 3087 3085 3083 3081 3080 3078 3076 3075 3073 3072 3070 3068 3067 3066 3065 3064 3063 3061 3060 3059 3057 3055 3054 3052 3051 3049 3048 3046 3045 3044 3043 3041 3040 3039 3038
3121 3121 3121 3121 3121 3121 3121 3120 3120 3119 3118 3117 3116 3114 3113 3111 3110 3108 3106 3104 3101 3099 3097 3095 3093 3090 3088 3086 3084 3082 3080 3079 3077 3075 3073 3071 3070 3068 3067 3065 3064 3062 3061 3060 3059 3058 3057 3055 3054 3052 3051 3049 3047 3046 3044 3043 3041 3040 3038 3036 3035 3034 3033
3119 3119 3119 3119 3119 3119 3118 3118 3117 3117 3115 3114 3113 3111 3110 3108 3107 3105 3103 3101 3099 3097 3095 3093 3091 3088 3086 3084 3082 3080 3078 3076 3074 3073 3071 3069 3067 3065 3064 3062 3061 3059 3058 3057 3056 3055 3053 3052 3050 3049 3047 3045 3043 3042 3040 3039 3037 3036 3034 3032 3030 3028 3028
3117 3117 3117 3117 3117 3116 3116 3115 3115 3114 3112 3111 3110 3109 3107 3106 3104 3103 3101 3099 3097 3095 3093 3091 3089 3087 3085 3083 3081 3079 3077 3074 3072 3070 3068 3066 3065 3063 3061 3059 3058 3056 3055 3054 3052 3051 3050 3048 3047 3045 3044 3042 3040 3038 3037 3035 3034 3032 3030 3028 3026 3024 3023
3115 3115 3115 3115 3114 3114 3114 3113 3112 3111 3110 3109 3108 3106 3105 3104 3102 3101 3100 3098 3096 3094 3093 3091 3089 3087 3084 3082 3080 3077 3075 3073 3071 3069 3067 3065 3063 3061 3059 3057 3056 3054 3053 3051 3049 3048 3047 3045 3044 3042 3040 3039 3037 3035 3033 3032 3030 3028 3027 3025 3023 3021 3020
3113 3113 3113 3112 3112 3112 3111 3110 3110 3109 3108 3107 3106 3105 3104 3103 3101 3100 3099 3097 3096 3094 3092 3090 3088 3086 3084 3081 3079 3077 3074 3072 3070 3068 3065 3063 3061 3059 3057 3055 3054 3052 3050 3049 3047 3045 3044 3042 3041 3039 3037 3035 3034 3032 3030 3028 3026 3025 3023 3022 3020 3019 3017
3111 3111 3110 3110 3110 3110 3109 3108 3108 3107 3106 3105 3105 3104 3103 3102 3101 3100 3099 3097 3096 3094 3092 3090 3088 3085 3083 3081 3078 3076 3073 3071 3069 3066 3064 3062 3060 3058 3055 3053 3051 3049 3048 3046 3045 3043 3042 3040 3038 3036 3034 3032 3031 3029 3027 3025 3024 3022 3020 3019 3017 3015 3014
3109 3109 3109 3108 3108 3108 3107 3107 3106 3106 3105 3104 3104 3103 3103 3102 3101 3100 3099 3097 3095 3093 3091 3089 3087 3085 3083 3080 3078 3075 3073 3070 3068 3065 3063 3061 3058 3056 3054 3052 3050 3047 3045 3043 3042 3040 3039 3037 3036 3034 3032 3030 3028 3026 3025 3023 3021 3020 3018 3016 3015 3013 3011
3107 3107 3107 3107 3107 3106 3106 3106 3105 3105 3105 3104 3104 3103 3103 3102 3101 3100 3098 3097 3095 3093 3091 3089 3087 3085 3082 3080 3077 3075 3072 3070 3067 3065 3062 3060 3058 3056 3053 3051 3048 3046 3043 3041 3039 3037 3036 3034 3033 3031 3030 3028 3026 3024 3023 3021 3019 3018 3016 3014 3012 3011 3009
3106 3106 3106 3106 3106 3106 3106 3105 3105 3105 3105 3105 3104 3103 3103 3102 3101 3100 3098 3097 3095 3093 3091 3089 3086 3084 3082 3079 3077 3074 3072 3069 3067 3064 3062 3060 3058 3056 3053 3050 3047 3045 3042 3039 3037 3035 3033 3031 3030 3029 3027 3025 3024 3023 3021 3019 3017 3015 3014 3012 3010 3008 3007
3105 3105 3105 3105 3105 3105 3105 3105 3105 3105 3105 3105 3104 3103 3103 3102 3101 3100 3098 3097 3095 3093 3091 3089 3086 3084 3082 3080 3077 3075 3072 3069 3067 3065 3062 3060 3058 3055 3052 3050 3047 3044 3042 3039 3036 3034 3031 3029 3028 3026 3024 3023 3022 3020 3019 3018 3016 3014 3012 3010 3009 3007 3005
3104 3104 3104 3105 3105 3105 3106 3106 3106 3106 3105 3105 3104 3104 3103 3102 3101 3100 3098 3097 3095 3093 3091 3089 3087 3085 3082 3080 3078 3075 3072 3070 3068 3065 3063 3060 3058 3055 3052 3050 3047 3045 3042 3039 3036 3034 3031 3029 3026 3024 3022 3021 3019 3018 3017 3016 3014 3013 3011 3009 3008 3006 3004
3103 3104 3104 3105 3105 3106 3106 3106 3106 3106 3105 3105 3105 3104 3103 3102 3101 3100 3098 3097 3095 3093 3091 3089 3087 3085 3083 3080 3078 3075 3073 3071 3068 3066 3063 3060 3058 3055 3053 3051 3048 3046 3043 3041 3038 3035 3032 3029 3027 3024 3022 3020 3018 3017 3015 3014 3013 3011 3010 3008 3007 3005 3004